{"data":{"norad_id":45157,"intl_designator":"2020-008AC","name":"ONEWEB-0053","alt_names":[],"object_type":"PAYLOAD","status":"ACTIVE","operator":null,"country":"UK","launch_date":"2020-02-06","launch_site_code":"TYMSC","launch_vehicle":null,"mission":null,"orbit_class":"UNKNOWN","rcs_meters":null,"size_class":null,"mass_kg":null,"dimensions":null,"purposes":["comms"],"wikipedia_slug":null,"has_3d_model":false,"image_url":null,"decayed_at":null,"tle_current":{"epoch":"2026-09-20T02:41:46.830912Z","epoch_age_seconds":47935,"freshness":"FRESH","line1":"1 45157U 20008AC  26263.11234758 -.00000534  00000+0 -15668-2 0  9993","line2":"2 45157  87.8895  17.3833 0002174 107.0165 253.1201 13.10371378320348","mean_motion":13.10371378,"eccentricity":0.0002174,"inclination_deg":87.8895,"raan_deg":17.3833,"arg_perigee_deg":107.0165,"mean_anomaly_deg":253.1201,"bstar":-0.0015668,"rev_number":32034,"period_min":109.89251018271,"perigee_km":1220.0705051882,"apogee_km":1223.3749241922,"semimajor_km":7599.8597146902,"source":"CELESTRAK","updated_at":"2026-09-20T09:00:44.550085Z"}}}